This demonstration page uses our WeatherBlox Daily Observations layout. Learn more.

Left ArrowRight Arrow

39.92423, -83.80882

Hourly Observations for July 1, 2021

Temp ( °F °C ) Dew Point ( °F °C ) Humidity (%) Winds ( mph kmh ) Pressure ( in mb ) Visibility ( mi km ) Precip ( " mm )
12:19 am 00:19 Cloudy 73 23 N/A N/A SW 6 9 30.00 1016 10 16 N/A
12:56 am 00:56 Cloudy 72 22 N/A N/A SSW 5 7 30.00 1016 10 16 N/A
1:15 am 01:15 Cloudy 72 22 N/A N/A SSW 8 13 29.97 1015 10 16 N/A
1:33 am 01:33 Cloudy 72 22 N/A N/A SW 8 13 29.96 1015 8 13 N/A
1:56 am 01:56 Mostly Cloudy with Light Rain 72 22 N/A N/A SW 6 9 29.98 1015 9 14 0.00 0.00
2:05 am 02:05 Cloudy with Light Rain 72 22 N/A N/A SW 5 7 29.95 1014 9 14 0.00 0.00
2:14 am 02:14 Cloudy with Light Rain 72 22 N/A N/A WSW 6 9 29.96 1015 8 13 0.00 0.00
2:40 am 02:40 Cloudy with Nearby Thunderstorms 70 21 N/A N/A WSW 8 13 29.97 1015 8 13 0.00 0.00
2:56 am 02:56 Cloudy 70 21 N/A N/A W 5 7 29.97 1015 7 11 0.00 0.00
3:56 am 03:56 Cloudy with Light Rain 72 22 N/A N/A W 3 6 29.96 1015 4 6 0.03 0.76
4:56 am 04:56 Mostly Cloudy with Light Rain 70 21 N/A N/A WNW 6 9 29.96 1015 8 13 0.02 0.51
5:07 am 05:07 Cloudy with Light Rain 70 21 N/A N/A W 5 7 29.94 1014 8 13 0.01 0.25
5:17 am 05:17 Cloudy with Light Rain 70 21 N/A N/A WSW 5 7 29.95 1014 9 14 0.02 0.51
5:33 am 05:33 Cloudy with Rain 70 21 N/A N/A W 6 9 29.95 1014 7 11 0.05 1.27
5:56 am 05:56 Cloudy with Light Rain 70 21 N/A N/A SW 5 7 29.96 1015 9 14 0.09 2.29
6:10 am 06:10 Cloudy with Light Rain 70 21 N/A N/A SW 6 9 29.95 1014 10 16 0.00 0.00
6:27 am 06:27 Cloudy with Light Rain 70 21 N/A N/A WSW 7 11 29.95 1014 9 14 0.01 0.25
6:56 am 06:56 Cloudy with Rain 68 20 N/A N/A WSW 7 11 29.97 1015 6 10 0.07 1.78
7:19 am 07:19 Cloudy with Rain 68 20 N/A N/A W 8 13 29.95 1014 4 6 0.12 3.05
7:28 am 07:28 Cloudy with Rain 68 20 N/A N/A WSW 8 13 29.95 1014 6 10 0.15 3.81
7:56 am 07:56 Cloudy with Rain 68 20 N/A N/A W 7 11 29.96 1014 10 16 0.19 4.83
8:44 am 08:44 Cloudy with Light Rain 68 20 N/A N/A N 8 13 29.96 1015 10 16 0.05 1.27
8:56 am 08:56 Cloudy with Light Rain 68 20 N/A N/A W 5 7 29.96 1015 10 16 0.05 1.27
9:56 am 09:56 Mostly Cloudy with Light Rain 70 21 N/A N/A WSW 3 6 29.96 1015 10 16 0.01 0.25
10:21 am 10:21 Mostly Cloudy 70 21 N/A N/A SSW 6 9 29.94 1014 10 16 0.00 0.00
10:56 am 10:56 Mostly Cloudy 70 21 N/A N/A WSW 7 11 29.96 1015 10 16 0.00 0.00
11:09 am 11:09 Cloudy 70 21 N/A N/A SW 6 9 29.95 1014 10 16 N/A
11:20 am 11:20 Cloudy with Light Rain 70 21 N/A N/A WSW 7 11 29.95 1014 9 14 0.00 0.00
11:45 am 11:45 Cloudy with Light Rain 70 21 N/A N/A WSW 7 11 29.94 1014 10 16 0.01 0.25
11:56 am 11:56 Cloudy 70 21 N/A N/A WSW 5 7 29.96 1015 10 16 0.01 0.25
12:56 pm 12:56 Cloudy 70 21 N/A N/A WSW 5 7 29.95 1014 10 16 N/A
1:56 pm 13:56 Cloudy 72 22 N/A N/A W 6 9 29.94 1014 10 16 0.00 0.00
2:18 pm 14:18 Cloudy 72 22 72 22 100 100 WNW 5 7 29.91 1013 10 16 N/A
2:56 pm 14:56 Mostly Cloudy 73 22.8 73 22.8 100 100 NW 5 7 29.93 1014 10 16 N/A
3:09 pm 15:09 Partly Cloudy 73 23 72 22 94 94 NW 6 9 29.90 1013 10 16 N/A
3:17 pm 15:17 Mostly Cloudy 73 23 72 22 94 94 NW 6 9 29.90 1013 10 16 N/A
3:24 pm 15:24 Partly Cloudy 73 23 72 22 94 94 W 5 7 29.90 1013 10 16 N/A
3:56 pm 15:56 Mostly Sunny 74 23.3 71 21.7 91 91 WNW 3 6 29.92 1013 10 16 N/A
4:56 pm 16:56 Mostly Sunny 77 25 72 22.2 85 85 N N/A 29.89 1012 10 16 N/A
5:56 pm 17:56 Partly Cloudy 79 26.1 69 20.6 72 72 WNW 5 7 29.88 1012 10 16 N/A
6:56 pm 18:56 Mostly Cloudy with Light Rain 75 23.9 71 21.7 88 88 W 8 13 29.88 1012 10 16 0.00 0.00
7:56 pm 19:56 Partly Cloudy 73 22.8 71 21.7 94 94 W 7 11 29.89 1012 10 16 0.00 0.00
8:56 pm 20:56 Sunny 71 21.7 71 21.7 100 100 NNE 3 6 29.89 1012 10 16 N/A
9:56 pm 21:56 Clear 68 20 N/A N/A N N/A 29.90 1013 10 16 N/A
10:56 pm 22:56 Mostly Cloudy 69 20.6 67 19.4 93 93 NE 10 17 29.93 1014 10 16 N/A
11:56 pm 23:56 Clear 67 19.4 67 19.4 100 100 NNE 8 13 29.93 1014 10 16 N/A

Powered by AerisWeather